| time (UTC) | temp C | wind direction | speed KPH | gust KPH | rain 1hr cm | rain 24hr cm | rain mn cm | humidity % | barometer mb |
| 20260906090936 | 18 | 30 | 3.2 | 11.3 | 0.00 | 0.00 | 0.00 | 85 | 1018.8 |
| 20260906090653 | 18 | 41 | 3.2 | 6.4 | 0.00 | 0.00 | 0.00 | 85 | 1018.7 |
| 20260906090201 | 18 | 18 | 3.2 | 4.8 | 0.00 | 0.00 | 0.00 | 85 | 1018.7 |
| 20260906085418 | 18 | 46 | 3.2 | 9.7 | 0.00 | 0.00 | 0.00 | 85 | 1018.7 |
| 20260906084912 | 18 | 67 | 3.2 | 9.7 | 0.00 | 0.00 | 0.00 | 85 | 1018.8 |
| 20260906084406 | 18 | 68 | 3.2 | 8.0 | 0.00 | 0.00 | 0.00 | 86 | 1018.9 |
| 20260906083859 | 18 | 74 | 3.2 | 8.0 | 0.00 | 0.00 | 0.00 | 86 | 1018.8 |
| 20260906083354 | 18 | 53 | 3.2 | 8.0 | 0.00 | 0.00 | 0.00 | 87 | 1018.9 |
| 20260906082854 | 18 | 96 | 3.2 | 9.7 | 0.00 | 0.00 | 0.00 | 87 | 1018.8 |
| 20260906082350 | 18 | 96 | 3.2 | 12.9 | 0.00 | 0.00 | 0.00 | 87 | 1018.8 |
| 20260906081851 | 18 | 51 | 3.2 | 12.9 | 0.00 | 0.00 | 0.00 | 87 | 1018.7 |
| 20260906081351 | 18 | 65 | 4.8 | 12.9 | 0.00 | 0.00 | 0.00 | 87 | 1018.6 |
| 20260906081111 | 19 | 66 | 4.8 | 12.9 | 0.00 | 0.00 | 0.00 | 88 | 1018.6 |
| 20260906080351 | 19 | 53 | 4.8 | 12.9 | 0.00 | 0.00 | 0.00 | 88 | 1018.6 |
| 20260906075851 | 19 | 38 | 6.4 | 14.5 | 0.00 | 0.00 | 0.00 | 88 | 1018.7 |
| 20260906075351 | 19 | 63 | 6.4 | 14.5 | 0.00 | 0.00 | 0.00 | 89 | 1018.6 |
| 20260906074851 | 20 | 70 | 6.4 | 14.5 | 0.00 | 0.00 | 0.00 | 89 | 1018.6 |
| 20260906074350 | 20 | 100 | 4.8 | 9.7 | 0.00 | 0.00 | 0.00 | 89 | 1018.6 |
| 20260906074114 | 20 | 72 | 4.8 | 11.3 | 0.00 | 0.00 | 0.00 | 89 | 1018.6 |
| 20260906073350 | 20 | 70 | 4.8 | 11.3 | 0.00 | 0.00 | 0.00 | 89 | 1018.5 |
| 20260906072852 | 20 | 80 | 4.8 | 12.9 | 0.00 | 0.00 | 0.00 | 89 | 1018.6 |
| 20260906072348 | 20 | 67 | 4.8 | 12.9 | 0.00 | 0.00 | 0.00 | 89 | 1018.7 |
| 20260906072102 | 20 | 29 | 4.8 | 9.7 | 0.00 | 0.00 | 0.00 | 88 | 1018.9 |
| 20260906071941 | 20 | 102 | 4.8 | 9.7 | 0.00 | 0.00 | 0.00 | 88 | 1018.8 |
| 20260906070845 | 21 | 36 | 4.8 | 9.7 | 0.00 | 0.00 | 0.00 | 88 | 1018.8 |
| 20260906070344 | 21 | 36 | 3.2 | 9.7 | 0.00 | 0.00 | 0.00 | 88 | 1018.8 |
| 20260906065845 | 21 | 41 | 3.2 | 9.7 | 0.00 | 0.00 | 0.00 | 88 | 1018.7 |
| 20260906065345 | 21 | 33 | 3.2 | 6.4 | 0.00 | 0.00 | 0.00 | 88 | 1018.7 |
| 20260906065105 | 21 | 51 | 3.2 | 8.0 | 0.00 | 0.00 | 0.00 | 88 | 1018.6 |
| 20260906064346 | 21 | 46 | 3.2 | 8.0 | 0.00 | 0.00 | 0.00 | 88 | 1018.6 |
| 20260906063846 | 21 | 96 | 3.2 | 4.8 | 0.00 | 0.00 | 0.00 | 88 | 1018.5 |
| 20260906063345 | 21 | 96 | 3.2 | 9.7 | 0.00 | 0.00 | 0.00 | 88 | 1018.5 |
| 20260906062847 | 21 | 90 | 3.2 | 9.7 | 0.00 | 0.00 | 0.00 | 88 | 1018.5 |
| 20260906062343 | 21 | 69 | 3.2 | 6.4 | 0.00 | 0.00 | 0.00 | 88 | 1018.5 |
| 20260906061841 | 21 | 74 | 3.2 | 8.0 | 0.00 | 0.00 | 0.00 | 88 | 1018.5 |
| 20260906061343 | 21 | 66 | 3.2 | 8.0 | 0.00 | 0.00 | 0.00 | 88 | 1018.5 |
| 20260906060841 | 21 | 105 | 3.2 | 9.7 | 0.00 | 0.00 | 0.00 | 88 | 1018.5 |
| 20260906060342 | 21 | 84 | 3.2 | 9.7 | 0.00 | 0.00 | 0.00 | 88 | 1018.6 |
| 20260906055840 | 21 | 96 | 3.2 | 4.8 | 0.00 | 0.00 | 0.00 | 88 | 1018.5 |
| 20260906055341 | 21 | 83 | 3.2 | 4.8 | 0.00 | 0.00 | 0.00 | 88 | 1018.5 |
| 20260906054841 | 21 | 88 | 1.6 | 4.8 | 0.00 | 0.00 | 0.00 | 88 | 1018.5 |
| 20260906054342 | 21 | 88 | 3.2 | 4.8 | 0.00 | 0.00 | 0.00 | 88 | 1018.4 |
| 20260906053836 | 21 | 92 | 3.2 | 8.0 | 0.00 | 0.00 | 0.00 | 88 | 1018.3 |
| 20260906053336 | 21 | 80 | 3.2 | 11.3 | 0.00 | 0.00 | 0.00 | 88 | 1018.3 |
| 20260906052838 | 21 | 84 | 3.2 | 12.9 | 0.00 | 0.00 | 0.00 | 88 | 1018.3 |
| 20260906052336 | 21 | 75 | 4.8 | 12.9 | 0.00 | 0.00 | 0.00 | 88 | 1018.2 |
| 20260906052100 | 21 | 72 | 3.2 | 9.7 | 0.00 | 0.00 | 0.00 | 88 | 1018.3 |
| 20260906051336 | 21 | 29 | 3.2 | 9.7 | 0.00 | 0.00 | 0.00 | 88 | 1018.3 |
| 20260906050836 | 21 | 42 | 3.2 | 8.0 | 0.00 | 0.00 | 0.00 | 88 | 1018.3 |
| 20260906050335 | 21 | 48 | 3.2 | 8.0 | 0.00 | 0.00 | 0.00 | 88 | 1018.2 |
| 20260906050101 | 21 | 59 | 3.2 | 11.3 | 0.00 | 0.00 | 0.00 | 88 | 1018.1 |
| 20260906045335 | 22 | 22 | 3.2 | 11.3 | 0.00 | 0.00 | 0.00 | 88 | 1018.0 |
| 20260906044829 | 22 | 76 | 3.2 | 8.0 | 0.00 | 0.00 | 0.00 | 88 | 1018.0 |
| 20260906044539 | 22 | 40 | 3.2 | 8.0 | 0.00 | 0.00 | 0.00 | 88 | 1018.0 |
| 20260906043816 | 22 | 72 | 3.2 | 8.0 | 0.00 | 0.00 | 0.00 | 88 | 1017.9 |
| 20260906043311 | 22 | 57 | 3.2 | 8.0 | 0.00 | 0.00 | 0.00 | 88 | 1017.9 |
| 20260906042805 | 22 | 64 | 3.2 | 8.0 | 0.00 | 0.00 | 0.00 | 88 | 1017.9 |
| 20260906042259 | 22 | 66 | 3.2 | 8.0 | 0.00 | 0.00 | 0.00 | 88 | 1017.8 |
| 20260906041753 | 22 | 78 | 1.6 | 4.8 | 0.00 | 0.00 | 0.00 | 88 | 1017.8 |
| 20260906041247 | 22 | 78 | 1.6 | 6.4 | 0.00 | 0.00 | 0.00 | 88 | 1017.8 |
| 20260906040741 | 22 | 78 | 3.2 | 6.4 | 0.00 | 0.00 | 0.00 | 88 | 1017.6 |
| 20260906040234 | 22 | 95 | 3.2 | 9.7 | 0.00 | 0.00 | 0.00 | 88 | 1017.6 |
| 20260906035731 | 22 | 96 | 3.2 | 9.7 | 0.00 | 0.00 | 0.00 | 88 | 1017.6 |
| 20260906035231 | 22 | 90 | 3.2 | 8.0 | 0.00 | 0.00 | 0.00 | 88 | 1017.7 |
| 20260906034957 | 22 | 76 | 3.2 | 4.8 | 0.00 | 0.00 | 0.00 | 88 | 1017.7 |
| 20260906034452 | 22 | 83 | 3.2 | 4.8 | 0.00 | 0.00 | 0.00 | 88 | 1017.7 |
| 20260906033735 | 22 | 86 | 3.2 | 8.0 | 0.00 | 0.00 | 0.00 | 88 | 1017.6 |
| 20260906033231 | 22 | 94 | 3.2 | 8.0 | 0.00 | 0.00 | 0.00 | 87 | 1017.6 |
| 20260906032731 | 22 | 62 | 3.2 | 6.4 | 0.00 | 0.00 | 0.00 | 87 | 1017.6 |
| 20260906032457 | 21 | 92 | 1.6 | 4.8 | 0.00 | 0.00 | 0.00 | 87 | 1017.6 |
| 20260906031732 | 21 | 99 | 1.6 | 8.0 | 0.00 | 0.00 | 0.00 | 87 | 1017.5 |
| 20260906031228 | 21 | 88 | 3.2 | 9.7 | 0.00 | 0.00 | 0.00 | 87 | 1017.4 |
| 20260906030727 | 21 | 87 | 3.2 | 9.7 | 0.00 | 0.00 | 0.00 | 87 | 1017.4 |
| 20260906030451 | 21 | 82 | 4.8 | 9.7 | 0.00 | 0.00 | 0.00 | 87 | 1017.4 |
| 20260906025727 | 21 | 73 | 4.8 | 11.3 | 0.00 | 0.00 | 0.00 | 87 | 1017.3 |
| 20260906025228 | 22 | 80 | 4.8 | 11.3 | 0.00 | 0.00 | 0.00 | 87 | 1017.3 |
| 20260906024727 | 22 | 90 | 4.8 | 11.3 | 0.00 | 0.00 | 0.00 | 87 | 1017.4 |
| 20260906024227 | 22 | 67 | 4.8 | 11.3 | 0.00 | 0.00 | 0.00 | 87 | 1017.3 |
| 20260906023728 | 22 | 90 | 4.8 | 12.9 | 0.00 | 0.00 | 0.00 | 87 | 1017.3 |
| 20260906023227 | 22 | 86 | 4.8 | 12.9 | 0.00 | 0.00 | 0.00 | 87 | 1017.3 |
| 20260906022943 | 22 | 48 | 3.2 | 8.0 | 0.00 | 0.00 | 0.00 | 87 | 1017.4 |
| 20260906022227 | 22 | 80 | 4.8 | 11.3 | 0.00 | 0.00 | 0.00 | 87 | 1017.2 |
| 20260906021728 | 22 | 84 | 4.8 | 11.3 | 0.00 | 0.00 | 0.00 | 87 | 1017.2 |
| 20260906021227 | 22 | 84 | 4.8 | 11.3 | 0.00 | 0.00 | 0.00 | 86 | 1017.3 |
| 20260906020726 | 22 | 69 | 4.8 | 11.3 | 0.00 | 0.00 | 0.00 | 86 | 1017.2 |
| 20260906020227 | 22 | 96 | 4.8 | 11.3 | 0.00 | 0.00 | 0.00 | 86 | 1017.2 |
| 20260906015948 | 22 | 101 | 6.4 | 14.5 | 0.00 | 0.00 | 0.00 | 87 | 1017.2 |
| 20260906015226 | 22 | 55 | 4.8 | 14.5 | 0.00 | 0.00 | 0.00 | 87 | 1017.1 |
| 20260906014729 | 22 | 83 | 4.8 | 11.3 | 0.00 | 0.00 | 0.00 | 87 | 1017.1 |
| 20260906014227 | 22 | 76 | 4.8 | 12.9 | 0.00 | 0.00 | 0.00 | 87 | 1017.1 |
| 20260906013725 | 22 | 72 | 6.4 | 14.5 | 0.00 | 0.00 | 0.00 | 87 | 1017.1 |
| 20260906013222 | 22 | 9 | 8.0 | 14.5 | 0.00 | 0.00 | 0.00 | 87 | 1017.1 |
| 20260906012720 | 22 | 64 | 6.4 | 16.1 | 0.00 | 0.00 | 0.00 | 87 | 1016.8 |
| 20260906012440 | 22 | 35 | 6.4 | 16.1 | 0.00 | 0.00 | 0.00 | 87 | 1016.8 |
| 20260906011714 | 22 | 90 | 6.4 | 12.9 | 0.00 | 0.00 | 0.00 | 87 | 1016.8 |
| 20260906011208 | 22 | 63 | 6.4 | 14.5 | 0.00 | 0.00 | 0.00 | 87 | 1016.7 |
| 20260906010702 | 22 | 78 | 4.8 | 14.5 | 0.00 | 0.00 | 0.00 | 87 | 1016.6 |
| 20260906010157 | 22 | 99 | 6.4 | 16.1 | 0.00 | 0.00 | 0.00 | 86 | 1016.5 |
| 20260906005650 | 22 | 24 | 8.0 | 16.1 | 0.00 | 0.00 | 0.00 | 86 | 1016.4 |
| 20260906005144 | 22 | 67 | 8.0 | 16.1 | 0.00 | 0.00 | 0.00 | 86 | 1016.3 |
| 20260906004857 | 23 | 54 | 8.0 | 20.9 | 0.00 | 0.00 | 0.00 | 86 | 1016.2 |
| 20260906004350 | 23 | 92 | 8.0 | 20.9 | 0.00 | 0.00 | 0.00 | 86 | 1016.2 |
| 20260906003626 | 23 | 40 | 8.0 | 16.1 | 0.00 | 0.00 | 0.00 | 85 | 1016.2 |
| 20260906003120 | 23 | 86 | 8.0 | 16.1 | 0.00 | 0.00 | 0.00 | 85 | 1016.2 |
| 20260906002614 | 23 | 82 | 8.0 | 17.7 | 0.00 | 0.00 | 0.00 | 85 | 1016.2 |
| 20260906002108 | 23 | 51 | 8.0 | 20.9 | 0.00 | 0.00 | 0.00 | 85 | 1016.1 |
| 20260906001602 | 24 | 35 | 8.0 | 25.7 | 0.00 | 0.00 | 0.00 | 85 | 1016.0 |
| 20260906001056 | 24 | 76 | 8.0 | 25.7 | 0.00 | 0.00 | 0.00 | 84 | 1016.1 |
| 20260906000550 | 24 | 96 | 8.0 | 20.9 | 0.00 | 0.00 | 0.00 | 84 | 1016.1 |
| 20260906000044 | 25 | 34 | 8.0 | 20.9 | 0.00 | 0.00 | 0.00 | 83 | 1016.1 |
| 20260905235538 | 25 | 24 | 8.0 | 17.7 | 0.00 | 0.00 | 0.00 | 83 | 1016.1 |
| 20260905235232 | 25 | 59 | 9.7 | 24.1 | 0.00 | 0.00 | 0.00 | 82 | 1015.9 |
| 20260905235118 | 25 | 80 | 9.7 | 19.3 | 0.00 | 0.00 | 0.00 | 83 | 1015.9 |
| 20260905234020 | 25 | 53 | 9.7 | 24.1 | 0.00 | 0.00 | 0.00 | 82 | 1015.9 |
| 20260905233956 | 25 | 51 | 8.0 | 24.1 | 0.00 | 0.00 | 0.00 | 82 | 1015.8 |
| 20260905233006 | 26 | 42 | 6.4 | 14.5 | 0.00 | 0.00 | 0.00 | 82 | 1015.7 |
| 20260905232506 | 26 | 83 | 6.4 | 14.5 | 0.00 | 0.00 | 0.00 | 82 | 1015.7 |
| 20260905232009 | 26 | 31 | 8.0 | 8.0 | 0.00 | 0.00 | 0.00 | 81 | 1015.6 |
| 20260905231449 | 26 | 103 | 6.4 | 16.1 | 0.00 | 0.00 | 0.00 | 81 | 1015.6 |
| 20260905230943 | 26 | 65 | 6.4 | 17.7 | 0.00 | 0.00 | 0.00 | 81 | 1015.6 |
| 20260905230437 | 26 | 26 | 6.4 | 17.7 | 0.00 | 0.00 | 0.00 | 80 | 1015.5 |
| 20260905230202 | 27 | 35 | 6.4 | 16.1 | 0.00 | 0.00 | 0.00 | 81 | 1015.5 |
| 20260905225437 | 27 | 36 | 6.4 | 16.1 | 0.00 | 0.00 | 0.00 | 81 | 1015.4 |
| 20260905224937 | 27 | 96 | 6.4 | 19.3 | 0.00 | 0.00 | 0.00 | 80 | 1015.3 |
| 20260905224437 | 27 | 17 | 6.4 | 19.3 | 0.00 | 0.00 | 0.00 | 80 | 1015.3 |
| 20260905223936 | 27 | 75 | 6.4 | 17.7 | 0.00 | 0.00 | 0.00 | 79 | 1015.1 |
| 20260905223434 | 27 | 67 | 8.0 | 17.7 | 0.00 | 0.00 | 0.00 | 79 | 1015.1 |
| 20260905222934 | 28 | 20 | 8.0 | 16.1 | 0.00 | 0.00 | 0.00 | 79 | 1015.1 |
| 20260905222434 | 28 | 49 | 8.0 | 14.5 | 0.00 | 0.00 | 0.00 | 80 | 1015.0 |
| 20260905221933 | 28 | 73 | 6.4 | 17.7 | 0.00 | 0.00 | 0.00 | 80 | 1014.8 |
| 20260905221429 | 28 | 83 | 8.0 | 17.7 | 0.00 | 0.00 | 0.00 | 80 | 1014.8 |
| 20260905221152 | 28 | 53 | 8.0 | 17.7 | 0.00 | 0.00 | 0.00 | 79 | 1014.7 |
| 20260905220428 | 28 | 40 | 8.0 | 20.9 | 0.00 | 0.00 | 0.00 | 79 | 1014.7 |
| 20260905215929 | 28 | 32 | 6.4 | 20.9 | 0.00 | 0.00 | 0.00 | 79 | 1014.7 |
| 20260905215429 | 28 | 88 | 6.4 | 17.7 | 0.00 | 0.00 | 0.00 | 79 | 1014.7 |
| 20260905214928 | 28 | 98 | 6.4 | 14.5 | 0.00 | 0.00 | 0.00 | 80 | 1014.6 |
| 20260905214430 | 28 | 86 | 6.4 | 14.5 | 0.00 | 0.00 | 0.00 | 80 | 1014.6 |
| 20260905213930 | 27 | 34 | 6.4 | 16.1 | 0.00 | 0.00 | 0.00 | 81 | 1014.5 |
| 20260905213424 | 27 | 101 | 8.0 | 17.7 | 0.00 | 0.00 | 0.00 | 82 | 1014.5 |
| 20260905212918 | 27 | 65 | 6.4 | 17.7 | 0.00 | 0.00 | 0.00 | 81 | 1014.5 |
| 20260905212412 | 27 | 19 | 6.4 | 14.5 | 0.00 | 0.00 | 0.00 | 81 | 1014.5 |
| 20260905211906 | 28 | 48 | 6.4 | 14.5 | 0.00 | 0.00 | 0.00 | 80 | 1014.5 |
| 20260905211400 | 28 | 10 | 6.4 | 14.5 | 0.00 | 0.00 | 0.00 | 80 | 1014.5 |
| 20260905210854 | 28 | 55 | 6.4 | 14.5 | 0.00 | 0.00 | 0.00 | 78 | 1014.5 |
| 20260905210348 | 28 | 55 | 6.4 | 16.1 | 0.00 | 0.00 | 0.00 | 78 | 1014.4 |
| 20260905205842 | 29 | 51 | 6.4 | 12.9 | 0.00 | 0.00 | 0.00 | 77 | 1014.5 |
| 20260905205532 | 29 | 44 | 6.4 | 12.9 | 0.00 | 0.00 | 0.00 | 76 | 1014.5 |
| 20260905205427 | 29 | 96 | 6.4 | 12.9 | 0.00 | 0.00 | 0.00 | 75 | 1014.5 |
| 20260905204336 | 29 | 95 | 4.8 | 11.3 | 0.00 | 0.00 | 0.00 | 77 | 1014.5 |
| 20260905204108 | 29 | 42 | 3.2 | 11.3 | 0.00 | 0.00 | 0.00 | 78 | 1014.6 |
| 20260905203336 | 29 | 344 | 3.2 | 9.7 | 0.00 | 0.00 | 0.00 | 78 | 1014.7 |
| 20260905202838 | 28 | 317 | 3.2 | 8.0 | 0.00 | 0.00 | 0.00 | 77 | 1014.7 |
| 20260905202336 | 29 | 98 | 4.8 | 11.3 | 0.00 | 0.00 | 0.00 | 76 | 1014.8 |
| 20260905202057 | 29 | 61 | 4.8 | 11.3 | 0.00 | 0.00 | 0.00 | 76 | 1014.8 |
| 20260905201333 | 30 | 5 | 6.4 | 11.3 | 0.00 | 0.00 | 0.00 | 75 | 1014.9 |
| 20260905200832 | 30 | 16 | 6.4 | 11.3 | 0.00 | 0.00 | 0.00 | 77 | 1015.0 |
| 20260905200334 | 29 | 52 | 6.4 | 14.5 | 0.00 | 0.00 | 0.00 | 77 | 1015.0 |
| 20260905195833 | 29 | 68 | 3.2 | 14.5 | 0.00 | 0.00 | 0.00 | 79 | 1015.0 |
| 20260905195331 | 28 | 49 | 3.2 | 11.3 | 0.00 | 0.00 | 0.00 | 80 | 1015.0 |
| 20260905194828 | 28 | 302 | 4.8 | 11.3 | 0.00 | 0.00 | 0.00 | 79 | 1015.1 |
| 20260905194327 | 28 | 5 | 3.2 | 9.7 | 0.00 | 0.00 | 0.00 | 80 | 1015.1 |
| 20260905193825 | 28 | 320 | 6.4 | 11.3 | 0.00 | 0.00 | 0.00 | 79 | 1015.1 |
| 20260905193324 | 28 | 24 | 6.4 | 11.3 | 0.00 | 0.00 | 0.00 | 79 | 1015.2 |
| 20260905192826 | 28 | 33 | 4.8 | 11.3 | 0.00 | 0.00 | 0.00 | 79 | 1015.1 |
| 20260905192550 | 28 | 73 | 3.2 | 9.7 | 0.00 | 0.00 | 0.00 | 79 | 1015.3 |
| 20260905191819 | 28 | 261 | 3.2 | 9.7 | 0.00 | 0.00 | 0.00 | 80 | 1015.3 |
| 20260905191314 | 28 | 270 | 3.2 | 8.0 | 0.00 | 0.00 | 0.00 | 81 | 1015.4 |
| 20260905190814 | 27 | 328 | 3.2 | 8.0 | 0.00 | 0.00 | 0.00 | 82 | 1015.5 |
| 20260905190314 | 27 | 256 | 4.8 | 11.3 | 0.00 | 0.00 | 0.00 | 82 | 1015.5 |
| 20260905190035 | 27 | 56 | 4.8 | 11.3 | 0.00 | 0.00 | 0.00 | 81 | 1015.4 |
| 20260905185311 | 27 | 32 | 4.8 | 11.3 | 0.00 | 0.00 | 0.00 | 82 | 1015.5 |
| 20260905184810 | 27 | 54 | 4.8 | 9.7 | 0.00 | 0.00 | 0.00 | 81 | 1015.5 |
| 20260905184523 | 27 | 327 | 6.4 | 12.9 | 0.00 | 0.00 | 0.00 | 81 | 1015.6 |
| 20260905183808 | 27 | 22 | 4.8 | 12.9 | 0.00 | 0.00 | 0.00 | 80 | 1015.7 |
| 20260905183307 | 27 | 340 | 3.2 | 8.0 | 0.00 | 0.00 | 0.00 | 81 | 1015.7 |
| 20260905182806 | 27 | 64 | 3.2 | 8.0 | 0.00 | 0.00 | 0.00 | 82 | 1015.8 |
| 20260905182307 | 27 | 0 | 4.8 | 8.0 | 0.00 | 0.00 | 0.00 | 81 | 1015.8 |
| 20260905181806 | 27 | 252 | 3.2 | 8.0 | 0.00 | 0.00 | 0.00 | 81 | 1015.7 |
| 20260905181307 | 27 | 238 | 3.2 | 8.0 | 0.00 | 0.00 | 0.00 | 81 | 1015.9 |
| 20260905180806 | 27 | 225 | 4.8 | 12.9 | 0.00 | 0.00 | 0.00 | 81 | 1015.9 |
| 20260905180302 | 27 | 228 | 4.8 | 12.9 | 0.00 | 0.00 | 0.00 | 83 | 1015.9 |
| 20260905175803 | 27 | 218 | 6.4 | 11.3 | 0.00 | 0.00 | 0.00 | 83 | 1015.8 |
| 20260905175524 | 27 | 219 | 8.0 | 14.5 | 0.00 | 0.00 | 0.00 | 81 | 1015.8 |
| 20260905174803 | 27 | 239 | 8.0 | 14.5 | 0.00 | 0.00 | 0.00 | 81 | 1015.8 |
| 20260905174303 | 27 | 258 | 6.4 | 12.9 | 0.00 | 0.00 | 0.00 | 81 | 1015.8 |
| 20260905173756 | 27 | 264 | 6.4 | 12.9 | 0.00 | 0.00 | 0.00 | 81 | 1015.9 |
| 20260905173251 | 27 | 233 | 8.0 | 12.9 | 0.00 | 0.00 | 0.00 | 82 | 1015.9 |
| 20260905172747 | 27 | 255 | 6.4 | 12.9 | 0.00 | 0.00 | 0.00 | 83 | 1015.9 |
| 20260905172248 | 26 | 208 | 4.8 | 11.3 | 0.00 | 0.00 | 0.00 | 83 | 1016.0 |
| 20260905171749 | 26 | 284 | 6.4 | 11.3 | 0.00 | 0.00 | 0.00 | 83 | 1016.0 |
| 20260905171249 | 26 | 238 | 6.4 | 11.3 | 0.00 | 0.00 | 0.00 | 83 | 1016.1 |
| 20260905171007 | 26 | 240 | 6.4 | 11.3 | 0.00 | 0.00 | 0.00 | 83 | 1016.2 |
| 20260905170508 | 26 | 238 | 6.4 | 11.3 | 0.00 | 0.00 | 0.00 | 84 | 1016.2 |
| 20260905165746 | 25 | 180 | 4.8 | 11.3 | 0.00 | 0.00 | 0.00 | 84 | 1016.3 |
| 20260905165730 | 25 | 211 | 3.2 | 9.7 | 0.00 | 0.00 | 0.00 | 86 | 1016.3 |
| 20260905164745 | 25 | 135 | 1.6 | 6.4 | 0.00 | 0.00 | 0.00 | 86 | 1016.3 |
| 20260905164247 | 25 | 211 | 1.6 | 6.4 | 0.00 | 0.00 | 0.00 | 86 | 1016.5 |
| 20260905163743 | 24 | 211 | 3.2 | 6.4 | 0.00 | 0.00 | 0.00 | 86 | 1016.5 |
| 20260905163243 | 24 | 211 | 3.2 | 6.4 | 0.00 | 0.00 | 0.00 | 86 | 1016.6 |
| 20260905162742 | 24 | 211 | 3.2 | 8.0 | 0.00 | 0.00 | 0.00 | 86 | 1016.6 |
| 20260905162500 | 25 | 220 | 4.8 | 8.0 | 0.00 | 0.00 | 0.00 | 85 | 1016.6 |
| 20260905161743 | 25 | 216 | 6.4 | 12.9 | 0.00 | 0.00 | 0.00 | 85 | 1016.5 |
| 20260905161503 | 25 | 206 | 8.0 | 14.5 | 0.00 | 0.00 | 0.00 | 84 | 1016.5 |
| 20260905160742 | 25 | 207 | 8.0 | 14.5 | 0.00 | 0.00 | 0.00 | 85 | 1016.4 |
| 20260905160241 | 25 | 211 | 9.7 | 16.1 | 0.00 | 0.00 | 0.00 | 85 | 1016.4 |
| 20260905155743 | 25 | 188 | 9.7 | 16.1 | 0.00 | 0.00 | 0.00 | 85 | 1016.5 |
| 20260905155238 | 25 | 219 | 8.0 | 14.5 | 0.00 | 0.00 | 0.00 | 84 | 1016.4 |
| 20260905154737 | 25 | 182 | 6.4 | 12.9 | 0.00 | 0.00 | 0.00 | 86 | 1016.4 |
| 20260905154238 | 24 | 194 | 8.0 | 14.5 | 0.00 | 0.00 | 0.00 | 87 | 1016.4 |
| 20260905153738 | 24 | 210 | 8.0 | 14.5 | 0.00 | 0.00 | 0.00 | 87 | 1016.3 |
| 20260905153238 | 24 | 193 | 4.8 | 11.3 | 0.00 | 0.00 | 0.00 | 87 | 1016.4 |
| 20260905152739 | 23 | 213 | 1.6 | 11.3 | 0.00 | 0.00 | 0.00 | 87 | 1016.5 |
| 20260905152239 | 23 | 194 | 1.6 | 6.4 | 0.00 | 0.00 | 0.00 | 87 | 1016.4 |
| 20260905151738 | 23 | 194 | 3.2 | 8.0 | 0.00 | 0.00 | 0.00 | 86 | 1016.5 |
| 20260905151240 | 23 | 194 | 3.2 | 8.0 | 0.00 | 0.00 | 0.00 | 86 | 1016.4 |
| 20260905150739 | 23 | 252 | 3.2 | 8.0 | 0.00 | 0.00 | 0.00 | 87 | 1016.6 |
| 20260905150237 | 23 | 219 | 3.2 | 8.0 | 0.00 | 0.00 | 0.00 | 88 | 1016.6 |
| 20260905145737 | 23 | 302 | 3.2 | 4.8 | 0.00 | 0.00 | 0.00 | 88 | 1016.6 |
| 20260905145236 | 23 | 301 | 1.6 | 4.8 | 0.00 | 0.00 | 0.00 | 88 | 1016.5 |
| 20260905144731 | 23 | 229 | 1.6 | 4.8 | 0.00 | 0.00 | 0.00 | 88 | 1016.4 |
| 20260905144232 | 23 | 229 | 1.6 | 4.8 | 0.00 | 0.00 | 0.00 | 88 | 1016.5 |
| 20260905143948 | 23 | 215 | 1.6 | 3.2 | 0.00 | 0.00 | 0.00 | 88 | 1016.5 |
| 20260905143229 | 23 | 215 | 1.6 | 6.4 | 0.00 | 0.00 | 0.00 | 88 | 1016.5 |
| 20260905142725 | 22 | 215 | 3.2 | 6.4 | 0.00 | 0.00 | 0.00 | 89 | 1016.4 |
| 20260905142227 | 22 | 216 | 4.8 | 9.7 | 0.00 | 0.00 | 0.00 | 89 | 1016.3 |
| 20260905141725 | 22 | 180 | 9.7 | 17.7 | 0.00 | 0.00 | 0.00 | 89 | 1016.2 |
| 20260905141227 | 22 | 175 | 11.3 | 17.7 | 0.00 | 0.00 | 0.00 | 89 | 1016.0 |
| 20260905140726 | 22 | 184 | 11.3 | 19.3 | 0.00 | 0.00 | 0.00 | 89 | 1015.9 |
| 20260905140225 | 22 | 223 | 11.3 | 19.3 | 0.00 | 0.00 | 0.00 | 89 | 1015.9 |
| 20260905135725 | 22 | 189 | 11.3 | 19.3 | 0.00 | 0.00 | 0.00 | 90 | 1015.8 |
| 20260905135225 | 22 | 211 | 12.9 | 19.3 | 0.00 | 0.00 | 0.00 | 89 | 1015.9 |
| 20260905134725 | 22 | 182 | 12.9 | 19.3 | 0.00 | 0.00 | 0.00 | 90 | 1015.9 |
| 20260905134225 | 22 | 198 | 12.9 | 19.3 | 0.00 | 0.00 | 0.00 | 90 | 1015.9 |
| 20260905134205 | 22 | 213 | 12.9 | 19.3 | 0.00 | 0.00 | 0.00 | 91 | 1015.8 |
| 20260905133213 | 22 | 187 | 12.9 | 19.3 | 0.00 | 0.00 | 0.00 | 91 | 1015.7 |
| 20260905132706 | 21 | 207 | 11.3 | 17.7 | 0.00 | 0.00 | 0.00 | 91 | 1015.6 |
| 20260905132200 | 21 | 180 | 11.3 | 17.7 | 0.00 | 0.00 | 0.00 | 91 | 1015.5 |
| 20260905131920 | 21 | 211 | 9.7 | 16.1 | 0.00 | 0.00 | 0.00 | 91 | 1015.5 |
| 20260905131147 | 21 | 192 | 9.7 | 16.1 | 0.00 | 0.00 | 0.00 | 92 | 1015.5 |
| 20260905130641 | 21 | 187 | 8.0 | 12.9 | 0.00 | 0.00 | 0.00 | 92 | 1015.6 |
| 20260905130136 | 21 | 217 | 8.0 | 12.9 | 0.00 | 0.00 | 0.00 | 92 | 1015.7 |
| 20260905125629 | 21 | 203 | 8.0 | 11.3 | 0.00 | 0.00 | 0.00 | 92 | 1015.7 |
| 20260905125124 | 21 | 215 | 8.0 | 11.3 | 0.00 | 0.00 | 0.00 | 92 | 1015.6 |
| 20260905124617 | 21 | 213 | 6.4 | 11.3 | 0.00 | 0.00 | 0.00 | 92 | 1015.6 |
| 20260905124112 | 21 | 214 | 4.8 | 8.0 | 0.00 | 0.00 | 0.00 | 92 | 1015.7 |
| 20260905123606 | 21 | 226 | 4.8 | 11.3 | 0.00 | 0.00 | 0.00 | 92 | 1015.7 |
| 20260905123100 | 21 | 211 | 8.0 | 12.9 | 0.00 | 0.00 | 0.00 | 92 | 1015.6 |
| 20260905122554 | 21 | 192 | 9.7 | 12.9 | 0.00 | 0.00 | 0.00 | 93 | 1015.5 |
| 20260905122047 | 21 | 202 | 8.0 | 12.9 | 0.00 | 0.00 | 0.00 | 92 | 1015.4 |
| 20260905122030 | 21 | 184 | 6.4 | 11.3 | 0.00 | 0.00 | 0.00 | 92 | 1015.4 |
| 20260905121036 | 21 | 199 | 4.8 | 9.7 | 0.00 | 0.00 | 0.00 | 92 | 1015.6 |
| 20260905120529 | 20 | 190 | 4.8 | 12.9 | 0.00 | 0.00 | 0.00 | 93 | 1015.6 |
| 20260905120024 | 20 | 200 | 6.4 | 12.9 | 0.00 | 0.00 | 0.00 | 92 | 1015.5 |
| 20260905115518 | 20 | 194 | 8.0 | 14.5 | 0.00 | 0.00 | 0.00 | 92 | 1015.4 |
| 20260905115235 | 20 | 152 | 6.4 | 14.5 | 0.00 | 0.00 | 0.00 | 92 | 1015.4 |
| 20260905114506 | 20 | 199 | 6.4 | 12.9 | 0.00 | 0.00 | 0.00 | 92 | 1015.4 |
| 20260905114000 | 21 | 208 | 8.0 | 14.5 | 0.00 | 0.00 | 0.00 | 92 | 1015.4 |
| 20260905113454 | 21 | 198 | 8.0 | 14.5 | 0.00 | 0.00 | 0.00 | 92 | 1015.3 |
| 20260905112952 | 21 | 168 | 9.7 | 16.1 | 0.00 | 0.00 | 0.00 | 92 | 1015.3 |
| 20260905112442 | 21 | 188 | 9.7 | 16.1 | 0.00 | 0.00 | 0.00 | 92 | 1015.2 |
| 20260905111936 | 21 | 180 | 9.7 | 14.5 | 0.00 | 0.00 | 0.00 | 92 | 1015.1 |
| 20260905111430 | 21 | 184 | 9.7 | 14.5 | 0.00 | 0.00 | 0.00 | 92 | 1015.1 |
| 20260905111144 | 21 | 203 | 9.7 | 14.5 | 0.00 | 0.00 | 0.00 | 92 | 1015.1 |
| 20260905110417 | 21 | 187 | 9.7 | 17.7 | 0.00 | 0.00 | 0.00 | 92 | 1015.0 |
| 20260905105912 | 21 | 194 | 8.0 | 17.7 | 0.00 | 0.00 | 0.00 | 91 | 1014.9 |
| 20260905105406 | 21 | 186 | 4.8 | 11.3 | 0.00 | 0.00 | 0.00 | 91 | 1015.0 |
| 20260905104901 | 21 | 168 | 3.2 | 11.3 | 0.00 | 0.00 | 0.00 | 91 | 1015.0 |
| 20260905104353 | 21 | 132 | 4.8 | 11.3 | 0.00 | 0.00 | 0.00 | 91 | 1015.0 |
| 20260905103847 | 21 | 181 | 3.2 | 11.3 | 0.00 | 0.00 | 0.00 | 90 | 1015.1 |
| 20260905103342 | 21 | 163 | 3.2 | 6.4 | 0.00 | 0.00 | 0.00 | 90 | 1015.2 |
| 20260905102836 | 21 | 159 | 4.8 | 9.7 | 0.00 | 0.00 | 0.00 | 90 | 1015.2 |
| 20260905102330 | 21 | 177 | 4.8 | 9.7 | 0.00 | 0.00 | 0.00 | 90 | 1015.1 |
| 20260905101825 | 21 | 208 | 4.8 | 9.7 | 0.00 | 0.00 | 0.00 | 90 | 1015.0 |
| 20260905101318 | 21 | 192 | 6.4 | 11.3 | 0.00 | 0.00 | 0.00 | 89 | 1014.9 |
| 20260905100812 | 21 | 202 | 8.0 | 11.3 | 0.00 | 0.00 | 0.00 | 89 | 1014.9 |
| 20260905100306 | 21 | 188 | 8.0 | 12.9 | 0.00 | 0.00 | 0.00 | 89 | 1014.8 |
| 20260905095759 | 22 | 197 | 8.0 | 12.9 | 0.00 | 0.00 | 0.00 | 88 | 1014.8 |
| 20260905095254 | 22 | 196 | 8.0 | 12.9 | 0.00 | 0.00 | 0.00 | 88 | 1014.9 |
| 20260905094748 | 22 | 173 | 8.0 | 12.9 | 0.00 | 0.00 | 0.00 | 88 | 1014.9 |
| 20260905094242 | 22 | 184 | 4.8 | 12.9 | 0.00 | 0.00 | 0.00 | 88 | 1015.0 |
| 20260905093736 | 22 | 198 | 3.2 | 8.0 | 0.00 | 0.00 | 0.00 | 88 | 1015.1 |
| 20260905093230 | 22 | 157 | 3.2 | 8.0 | 0.00 | 0.00 | 0.00 | 87 | 1015.1 |
| 20260905092723 | 22 | 185 | 1.6 | 8.0 | 0.00 | 0.00 | 0.00 | 87 | 1015.1 |
| 20260905092446 | 22 | 184 | 3.2 | 8.0 | 0.00 | 0.00 | 0.00 | 87 | 1015.3 |
| 20260905091711 | 22 | 184 | 3.2 | 8.0 | 0.00 | 0.00 | 0.00 | 86 | 1015.1 |
| 20260905091206 | 22 | 196 | 1.6 | 6.4 | 0.00 | 0.00 | 0.00 | 86 | 1015.2 |